Simultaneous Nadir Overpasses (SNOs) Predictions

Prediction of SNOs between TERRA and METOP-C Satellite Orbit:

Table of predicted SNOs for the next 14.0 days since TLE Epoch: 3/25/2023
Index Date (TERRA) Time (TERRA) Lat,Lon (TERRA) SZA (TERRA ) Date (METOP-C) Time (METOP-C) Lat,Lon (METOP-C) SZA (METOP-C ) Distance(km) Time Diff (sec)
1 03/26/2023 10:26:02 80.86, 57.35 80.07 03/26/2023 10:24:57 80.87, 57.47 80.06 2.18 65
2 03/26/2023 11:15:24 -80.89,-134.57 99.88 03/26/2023 11:15:37 -80.89,-134.65 99.88 1.37 13
3 03/29/2023 02:37:11 80.87, 174.70 79.07 03/29/2023 02:36:38 80.88, 174.76 79.07 1.19 33
4 03/29/2023 03:26:33 -80.91, -17.22 100.88 03/29/2023 03:27:18 -80.90, -17.38 100.88 2.85 45
5 03/31/2023 18:48:19 80.88, -67.99 78.07 03/31/2023 18:48:19 80.88, -68.07 78.06 1.56 0
6 04/03/2023 10:10:04 -80.87,-118.57 102.95 04/03/2023 10:09:19 -80.87,-118.48 102.96 1.56 45
7 04/03/2023 10:59:24 80.92, 49.64 77.12 04/03/2023 10:59:57 80.92, 49.68 77.14 0.78 33
8 04/06/2023 02:21:10 -80.88, -1.32 103.95 04/06/2023 02:20:59 -80.88, -1.24 103.94 1.52 11



Historial Predications of SNOs between TERRA and METOP-C
